When you browse on this site, cookies collect data to enhance your experience and personalize the content and advertising you see.
Visit our Privacy Policy to learn more. By continuing to use the site, you agree to this use of cookies and data.
  • In Hungary
  • List of Countries
  • For 7 days
  • Water Temperature
  • Weather Map
  • News
  • Weather Widgets
  • user-avatar
    Login

    Hourly Weather Taranto

    Today, 17 November, Sunday

    Time Temperature Precipitation Wind Pressure Humidity
    00:00 +18°C° 0 mm 10 mps 759 mmHg 81%
    01:00 +18°C° 0 mm 10 mps 758 mmHg 80%
    02:00 +18°C° 0.1 mm 10 mps 758 mmHg 81%
    03:00 +18°C° 0.1 mm 10 mps 758 mmHg 81%
    04:00 +18°C° 0.1 mm 10 mps 758 mmHg 82%
    05:00 +18°C° 0 mm 10 mps 757 mmHg 82%
    06:00 +18°C° 0 mm 10 mps 757 mmHg 82%
    07:00 +18°C° 0 mm 10 mps 757 mmHg 81%
    08:00 +19°C° 0.1 mm 11 mps 757 mmHg 78%
    09:00 +19°C° 0.1 mm 12 mps 757 mmHg 75%
    10:00 +21°C° 0.1 mm 12 mps 757 mmHg 71%
    11:00 +21°C° 0.2 mm 12 mps 757 mmHg 71%
    12:00 +20°C° 0.2 mm 13 mps 757 mmHg 70%
    13:00 +20°C° 0.2 mm 13 mps 756 mmHg 70%
    14:00 +21°C° 0.3 mm 12 mps 756 mmHg 72%
    15:00 +19°C° 0.3 mm 12 mps 756 mmHg 74%
    16:00 +19°C° 0.3 mm 11 mps 756 mmHg 77%
    17:00 +18°C° 1.2 mm 10 mps 756 mmHg 78%
    18:00 +17°C° 1.2 mm 10 mps 756 mmHg 80%
    19:00 +17°C° 1.2 mm 9 mps 756 mmHg 82%
    20:00 +16°C° 1.4 mm 7 mps 756 mmHg 82%
    21:00 +16°C° 1.4 mm 6 mps 756 mmHg 82%
    22:00 +15°C° 1.4 mm 4 mps 756 mmHg 83%
    23:00 +14°C° 0.1 mm 4 mps 757 mmHg 81%

    Tomorrow, 18 November, Monday

    Time Temperature Precipitation Wind Pressure Humidity
    00:00 +13°C° 0.1 mm 4 mps 757 mmHg 80%
    01:00 +13°C° 0.1 mm 4 mps 757 mmHg 78%
    02:00 +12°C° 0 mm 3 mps 758 mmHg 77%
    03:00 +12°C° 0 mm 3 mps 758 mmHg 76%
    04:00 +12°C° 0 mm 3 mps 759 mmHg 76%
    05:00 +12°C° 0 mm 3 mps 759 mmHg 76%
    06:00 +13°C° 0 mm 2 mps 760 mmHg 76%
    07:00 +13°C° 0 mm 1 mps 760 mmHg 75%
    08:00 +14°C° 0 mm 2 mps 761 mmHg 71%
    09:00 +15°C° 0 mm 2 mps 761 mmHg 66%
    10:00 +17°C° 0 mm 2 mps 762 mmHg 61%
    11:00 +17°C° 0 mm 3 mps 762 mmHg 58%
    12:00 +18°C° 0 mm 3 mps 761 mmHg 56%
    13:00 +19°C° 0 mm 4 mps 761 mmHg 54%
    14:00 +18°C° 0 mm 4 mps 761 mmHg 58%
    15:00 +17°C° 0 mm 3 mps 761 mmHg 62%
    16:00 +17°C° 0 mm 3 mps 761 mmHg 65%
    17:00 +16°C° 0 mm 3 mps 761 mmHg 68%
    18:00 +15°C° 0 mm 4 mps 761 mmHg 70%
    19:00 +14°C° 0 mm 4 mps 761 mmHg 73%
    20:00 +14°C° 0 mm 5 mps 762 mmHg 74%
    21:00 +14°C° 0 mm 5 mps 762 mmHg 76%
    22:00 +15°C° 0 mm 5 mps 762 mmHg 77%
    23:00 +15°C° 0 mm 6 mps 762 mmHg 77%

    Day after tomorrow, 19 November, Tuesday

    Time Temperature Precipitation Wind Pressure Humidity
    00:00 +15°C° 0 mm 6 mps 762 mmHg 77%
    01:00 +15°C° 0 mm 6 mps 761 mmHg 76%
    02:00 +15°C° 0 mm 6 mps 761 mmHg 76%
    03:00 +14°C° 0 mm 6 mps 761 mmHg 76%
    04:00 +14°C° 0 mm 6 mps 761 mmHg 76%
    05:00 +14°C° 0 mm 6 mps 761 mmHg 76%
    06:00 +14°C° 0 mm 6 mps 761 mmHg 75%
    07:00 +14°C° 0 mm 5 mps 761 mmHg 75%
    08:00 +15°C° 0.2 mm 6 mps 761 mmHg 72%
    09:00 +16°C° 0.2 mm 7 mps 762 mmHg 69%
    10:00 +17°C° 0.2 mm 7 mps 762 mmHg 66%
    11:00 +17°C° 0.3 mm 8 mps 761 mmHg 66%
    12:00 +17°C° 0.3 mm 8 mps 761 mmHg 66%
    13:00 +17°C° 0.3 mm 8 mps 761 mmHg 67%
    14:00 +17°C° 0.4 mm 7 mps 760 mmHg 69%
    15:00 +16°C° 0.4 mm 7 mps 760 mmHg 70%
    16:00 +16°C° 0.4 mm 7 mps 760 mmHg 72%
    17:00 +16°C° 0.3 mm 6 mps 760 mmHg 74%
    18:00 +15°C° 0.3 mm 5 mps 760 mmHg 76%
    19:00 +15°C° 0.3 mm 5 mps 760 mmHg 78%
    20:00 +15°C° 0.2 mm 4 mps 760 mmHg 78%
    21:00 +14°C° 0.2 mm 3 mps 760 mmHg 79%
    22:00 +15°C° 0.2 mm 2 mps 760 mmHg 79%
    23:00 +14°C° 0.2 mm 3 mps 760 mmHg 80%

    20 November, Wednesday

    Time Temperature Precipitation Wind Pressure Humidity
    00:00 +14°C° 0.2 mm 3 mps 760 mmHg 81%
    01:00 +13°C° 0.2 mm 3 mps 760 mmHg 83%
    02:00 +13°C° 0 mm 3 mps 760 mmHg 82%
    03:00 +13°C° 0 mm 2 mps 760 mmHg 81%
    04:00 +13°C° 0 mm 2 mps 760 mmHg 80%
    05:00 +13°C° 0 mm 2 mps 760 mmHg 80%
    06:00 +13°C° 0 mm 2 mps 760 mmHg 80%
    07:00 +13°C° 0 mm 1 mps 760 mmHg 79%
    08:00 +14°C° 0 mm 2 mps 761 mmHg 74%
    09:00 +16°C° 0 mm 2 mps 761 mmHg 68%
    10:00 +17°C° 0 mm 2 mps 762 mmHg 62%
    11:00 +18°C° 0 mm 2 mps 762 mmHg 59%
    12:00 +18°C° 0 mm 2 mps 762 mmHg 55%
    13:00 +19°C° 0 mm 2 mps 762 mmHg 51%
    14:00 +18°C° 0 mm 2 mps 762 mmHg 55%
    15:00 +18°C° 0 mm 1 mps 762 mmHg 59%
    16:00 +18°C° 0 mm 1 mps 762 mmHg 63%
    17:00 +16°C° 0 mm 2 mps 763 mmHg 68%
    18:00 +15°C° 0 mm 2 mps 763 mmHg 73%
    19:00 +13°C° 0 mm 3 mps 763 mmHg 78%
    20:00 +14°C° 0 mm 2 mps 763 mmHg 79%
    21:00 +14°C° 0 mm 2 mps 763 mmHg 81%
    22:00 +13°C° 0 mm 2 mps 763 mmHg 82%
    23:00 +13°C° 0.1 mm 2 mps 763 mmHg 82%

    21 November, Thursday

    Time Temperature Precipitation Wind Pressure Humidity
    00:00 +13°C° 0.1 mm 2 mps 763 mmHg 82%
    01:00 +13°C° 0.1 mm 2 mps 763 mmHg 82%
    02:00 +13°C° 0.1 mm 2 mps 763 mmHg 82%
    03:00 +13°C° 0.1 mm 2 mps 763 mmHg 82%
    04:00 +13°C° 0.1 mm 2 mps 762 mmHg 82%
    05:00 +13°C° 0.1 mm 2 mps 762 mmHg 82%
    06:00 +13°C° 0.1 mm 2 mps 762 mmHg 82%
    07:00 +13°C° 0.1 mm 2 mps 762 mmHg 82%
    08:00 +14°C° 0.1 mm 2 mps 762 mmHg 77%
    09:00 +15°C° 0.1 mm 2 mps 763 mmHg 73%
    10:00 +17°C° 0.1 mm 2 mps 763 mmHg 69%
    11:00 +17°C° 0.1 mm 2 mps 762 mmHg 67%
    12:00 +17°C° 0.1 mm 2 mps 762 mmHg 66%
    13:00 +18°C° 0.1 mm 2 mps 762 mmHg 64%
    14:00 +17°C° 0 mm 2 mps 762 mmHg 68%
    15:00 +17°C° 0 mm 2 mps 762 mmHg 71%
    16:00 +16°C° 0 mm 2 mps 762 mmHg 74%
    17:00 +15°C° 0 mm 2 mps 762 mmHg 77%
    18:00 +15°C° 0 mm 2 mps 762 mmHg 79%
    19:00 +14°C° 0 mm 2 mps 762 mmHg 82%
    20:00 +14°C° 0 mm 2 mps 762 mmHg 81%
    21:00 +13°C° 0 mm 2 mps 762 mmHg 81%
    22:00 +13°C° 0 mm 2 mps 763 mmHg 80%
    23:00 +13°C° 0 mm 2 mps 763 mmHg 79%

    22 November, Friday

    Time Temperature Precipitation Wind Pressure Humidity
    00:00 +13°C° 0 mm 2 mps 763 mmHg 79%
    01:00 +13°C° 0 mm 2 mps 763 mmHg 79%
    02:00 +13°C° 0 mm 2 mps 762 mmHg 79%
    03:00 +13°C° 0 mm 2 mps 762 mmHg 80%
    04:00 +13°C° 0 mm 2 mps 762 mmHg 80%
    05:00 +13°C° 0 mm 2 mps 762 mmHg 81%
    06:00 +13°C° 0 mm 2 mps 762 mmHg 82%
    07:00 +13°C° 0 mm 2 mps 762 mmHg 82%
    08:00 +13°C° 0 mm 3 mps 763 mmHg 77%
    09:00 +16°C° 0 mm 3 mps 763 mmHg 72%
    10:00 +17°C° 0 mm 4 mps 763 mmHg 66%
    11:00 +17°C° 0 mm 4 mps 763 mmHg 66%
    12:00 +17°C° 0 mm 5 mps 763 mmHg 66%
    13:00 +17°C° 0 mm 5 mps 763 mmHg 66%
    14:00 +17°C° 0 mm 5 mps 763 mmHg 69%
    15:00 +16°C° 0 mm 5 mps 763 mmHg 72%
    16:00 +16°C° 0 mm 5 mps 763 mmHg 75%
    17:00 +16°C° 0 mm 5 mps 763 mmHg 77%
    18:00 +15°C° 0 mm 5 mps 763 mmHg 79%
    19:00 +15°C° 0 mm 5 mps 763 mmHg 81%
    20:00 +15°C° 0 mm 5 mps 763 mmHg 81%
    21:00 +15°C° 0 mm 5 mps 763 mmHg 80%
    22:00 +15°C° 0 mm 5 mps 763 mmHg 80%
    23:00 +15°C° 0 mm 5 mps 763 mmHg 80%
    Show more